When you browse on this site, cookies collect data to enhance your experience and personalize the content and advertising you see.
Visit our Privacy Policy to learn more. By continuing to use the site, you agree to this use of cookies and data.

Hourly Weather Tirana

Today, 14 July, Tuesday

Time Temperature Precipitation Wind Pressure Humidity
00:00 +20°C° 0 mm 4 mps 752 mmHg 52%
01:00 +20°C° 0 mm 4 mps 752 mmHg 50%
02:00 +19°C° 0 mm 4 mps 751 mmHg 51%
03:00 +19°C° 0 mm 4 mps 751 mmHg 52%
04:00 +18°C° 0 mm 4 mps 751 mmHg 52%
05:00 +20°C° 0 mm 4 mps 751 mmHg 49%
06:00 +22°C° 0 mm 4 mps 751 mmHg 45%
07:00 +25°C° 0 mm 4 mps 751 mmHg 42%
08:00 +27°C° 0 mm 3 mps 751 mmHg 39%
09:00 +29°C° 0 mm 3 mps 751 mmHg 36%
10:00 +30°C° 0 mm 3 mps 751 mmHg 33%
11:00 +32°C° 0 mm 4 mps 751 mmHg 33%
12:00 +32°C° 0 mm 4 mps 751 mmHg 34%
13:00 +32°C° 0 mm 4 mps 751 mmHg 34%
14:00 +32°C° 0 mm 5 mps 751 mmHg 35%
15:00 +32°C° 0 mm 5 mps 750 mmHg 36%
16:00 +30°C° 0 mm 6 mps 750 mmHg 37%
17:00 +29°C° 0 mm 5 mps 750 mmHg 44%
18:00 +27°C° 0 mm 4 mps 751 mmHg 51%
19:00 +25°C° 0 mm 4 mps 751 mmHg 58%
20:00 +24°C° 0 mm 3 mps 751 mmHg 61%
21:00 +23°C° 0 mm 2 mps 751 mmHg 64%
22:00 +21°C° 0 mm 2 mps 752 mmHg 67%
23:00 +22°C° 0 mm 1 mps 752 mmHg 68%

Tomorrow, 15 July, Wednesday

Time Temperature Precipitation Wind Pressure Humidity
00:00 +21°C° 0 mm 1 mps 752 mmHg 68%
01:00 +21°C° 0 mm 1 mps 752 mmHg 69%
02:00 +21°C° 0 mm 1 mps 752 mmHg 70%
03:00 +21°C° 0 mm 1 mps 752 mmHg 72%
04:00 +20°C° 0 mm 1 mps 752 mmHg 73%
05:00 +22°C° 0 mm 1 mps 752 mmHg 67%
06:00 +24°C° 0 mm 1 mps 753 mmHg 60%
07:00 +26°C° 0 mm 1 mps 753 mmHg 54%
08:00 +28°C° 0 mm 2 mps 753 mmHg 48%
09:00 +29°C° 0 mm 2 mps 753 mmHg 42%
10:00 +31°C° 0 mm 2 mps 753 mmHg 37%
11:00 +31°C° 0 mm 3 mps 753 mmHg 35%
12:00 +33°C° 0 mm 3 mps 753 mmHg 33%
13:00 +33°C° 0 mm 4 mps 753 mmHg 32%
14:00 +33°C° 0 mm 4 mps 753 mmHg 33%
15:00 +31°C° 0 mm 3 mps 753 mmHg 33%
16:00 +30°C° 0 mm 3 mps 752 mmHg 34%
17:00 +29°C° 0 mm 2 mps 752 mmHg 39%
18:00 +27°C° 0 mm 2 mps 752 mmHg 44%
19:00 +25°C° 0 mm 1 mps 752 mmHg 49%
20:00 +24°C° 0 mm 2 mps 753 mmHg 53%
21:00 +23°C° 0 mm 2 mps 753 mmHg 58%
22:00 +21°C° 0 mm 3 mps 753 mmHg 62%
23:00 +21°C° 0.2 mm 3 mps 753 mmHg 62%

Day after tomorrow, 16 July, Thursday

Time Temperature Precipitation Wind Pressure Humidity
00:00 +21°C° 0.2 mm 3 mps 753 mmHg 61%
01:00 +21°C° 0.2 mm 2 mps 753 mmHg 61%
02:00 +21°C° 0.2 mm 2 mps 752 mmHg 60%
03:00 +21°C° 0.2 mm 2 mps 752 mmHg 59%
04:00 +21°C° 0.2 mm 2 mps 752 mmHg 58%
05:00 +23°C° 0.1 mm 2 mps 752 mmHg 55%
06:00 +24°C° 0.1 mm 2 mps 752 mmHg 53%
07:00 +26°C° 0.1 mm 2 mps 752 mmHg 50%
08:00 +27°C° 0 mm 2 mps 752 mmHg 46%
09:00 +29°C° 0 mm 2 mps 752 mmHg 42%
10:00 +31°C° 0 mm 2 mps 752 mmHg 38%
11:00 +31°C° 0 mm 3 mps 752 mmHg 38%
12:00 +32°C° 0 mm 4 mps 751 mmHg 38%
13:00 +33°C° 0 mm 4 mps 751 mmHg 38%
14:00 +32°C° 0 mm 4 mps 751 mmHg 39%
15:00 +32°C° 0 mm 4 mps 751 mmHg 41%
16:00 +32°C° 0 mm 4 mps 750 mmHg 42%
17:00 +29°C° 0 mm 4 mps 750 mmHg 49%
18:00 +27°C° 0 mm 3 mps 751 mmHg 56%
19:00 +25°C° 0 mm 3 mps 751 mmHg 64%
20:00 +24°C° 0 mm 2 mps 751 mmHg 68%
21:00 +23°C° 0 mm 2 mps 751 mmHg 72%
22:00 +22°C° 0 mm 1 mps 751 mmHg 76%
23:00 +22°C° 0 mm 1 mps 751 mmHg 76%

17 July, Friday

Time Temperature Precipitation Wind Pressure Humidity
00:00 +21°C° 0 mm 1 mps 751 mmHg 75%
01:00 +21°C° 0 mm 1 mps 751 mmHg 74%
02:00 +21°C° 0 mm 1 mps 750 mmHg 74%
03:00 +21°C° 0 mm 1 mps 750 mmHg 75%
04:00 +20°C° 0 mm 1 mps 750 mmHg 75%
05:00 +22°C° 0 mm 1 mps 750 mmHg 68%
06:00 +24°C° 0 mm 1 mps 750 mmHg 60%
07:00 +27°C° 0 mm 1 mps 750 mmHg 53%
08:00 +28°C° 0 mm 1 mps 750 mmHg 47%
09:00 +30°C° 0 mm 2 mps 750 mmHg 42%
10:00 +32°C° 0 mm 2 mps 750 mmHg 37%
11:00 +34°C° 0 mm 3 mps 749 mmHg 37%
12:00 +34°C° 0 mm 4 mps 749 mmHg 36%
13:00 +34°C° 0 mm 5 mps 749 mmHg 36%
14:00 +34°C° 0 mm 5 mps 749 mmHg 37%
15:00 +33°C° 0 mm 5 mps 748 mmHg 38%
16:00 +33°C° 0 mm 5 mps 748 mmHg 40%
17:00 +29°C° 0 mm 4 mps 748 mmHg 47%
18:00 +27°C° 0 mm 3 mps 749 mmHg 55%
19:00 +25°C° 0 mm 3 mps 749 mmHg 62%
20:00 +24°C° 0 mm 2 mps 749 mmHg 67%
21:00 +23°C° 0 mm 2 mps 749 mmHg 71%
22:00 +22°C° 0 mm 1 mps 750 mmHg 76%
23:00 +22°C° 0 mm 1 mps 749 mmHg 75%

18 July, Saturday

Time Temperature Precipitation Wind Pressure Humidity
00:00 +21°C° 0 mm 1 mps 749 mmHg 75%
01:00 +21°C° 0 mm 1 mps 749 mmHg 75%
02:00 +21°C° 0 mm 1 mps 749 mmHg 75%
03:00 +21°C° 0 mm 1 mps 749 mmHg 75%
04:00 +20°C° 0 mm 1 mps 749 mmHg 75%
05:00 +22°C° 0 mm 1 mps 749 mmHg 68%
06:00 +24°C° 0 mm 1 mps 749 mmHg 61%
07:00 +26°C° 0 mm 1 mps 750 mmHg 55%
08:00 +28°C° 0 mm 1 mps 750 mmHg 49%
09:00 +29°C° 0 mm 2 mps 750 mmHg 43%
10:00 +31°C° 0 mm 3 mps 750 mmHg 37%
11:00 +33°C° 0 mm 4 mps 750 mmHg 36%
12:00 +33°C° 0 mm 5 mps 750 mmHg 35%
13:00 +34°C° 0 mm 6 mps 749 mmHg 34%
14:00 +33°C° 0 mm 6 mps 749 mmHg 38%
15:00 +32°C° 0 mm 6 mps 749 mmHg 41%
16:00 +30°C° 0 mm 6 mps 749 mmHg 45%
17:00 +28°C° 0 mm 5 mps 749 mmHg 53%
18:00 +26°C° 0 mm 4 mps 750 mmHg 62%
19:00 +23°C° 0 mm 4 mps 750 mmHg 71%
20:00 +22°C° 0 mm 3 mps 750 mmHg 76%
21:00 +21°C° 0 mm 2 mps 750 mmHg 81%
22:00 +20°C° 0 mm 2 mps 751 mmHg 86%
23:00 +20°C° 0 mm 2 mps 751 mmHg 87%

19 July, Sunday

Time Temperature Precipitation Wind Pressure Humidity
00:00 +20°C° 0 mm 2 mps 751 mmHg 88%
01:00 +19°C° 0 mm 2 mps 751 mmHg 88%
02:00 +19°C° 0 mm 2 mps 751 mmHg 88%
03:00 +19°C° 0 mm 2 mps 751 mmHg 88%
04:00 +20°C° 0 mm 1 mps 751 mmHg 88%
05:00 +22°C° 0 mm 1 mps 751 mmHg 80%
06:00 +23°C° 0 mm 1 mps 751 mmHg 71%
07:00 +25°C° 0 mm 1 mps 751 mmHg 63%
08:00 +27°C° 0 mm 2 mps 751 mmHg 56%
09:00 +29°C° 0 mm 2 mps 751 mmHg 49%
10:00 +31°C° 0 mm 3 mps 752 mmHg 42%
11:00 +33°C° 0 mm 3 mps 751 mmHg 40%
12:00 +33°C° 0 mm 4 mps 751 mmHg 39%
13:00 +34°C° 0 mm 5 mps 751 mmHg 37%
14:00 +33°C° 0 mm 5 mps 751 mmHg 40%
15:00 +32°C° 0 mm 5 mps 751 mmHg 42%
16:00 +32°C° 0 mm 6 mps 751 mmHg 44%
17:00 +29°C° 0 mm 5 mps 751 mmHg 53%
18:00 +27°C° 0 mm 4 mps 751 mmHg 63%
19:00 +25°C° 0 mm 4 mps 751 mmHg 72%
20:00 +24°C° 0 mm 3 mps 751 mmHg 77%
21:00 +23°C° 0 mm 2 mps 751 mmHg 81%
22:00 +20°C° 0 mm 2 mps 752 mmHg 86%
23:00 +20°C° 0 mm 2 mps 752 mmHg 85%
Show more